TimeCST,TemperatureF,Dew PointF,Humidity,Sea Level PressureIn,VisibilityMPH,Wind Direction,Wind SpeedMPH,Gust SpeedMPH,PrecipitationIn,Events,Conditions,WindDirDegrees,DateUTC
12:50 AM,39.2,30.2,70,29.75,10.0,ESE,11.5,-,N/A,,Overcast,110,2012-12-15 06:50:00
12:53 AM,39.0,30.0,70,29.78,10.0,ESE,9.2,-,N/A,,Overcast,110,2012-12-15 06:53:00
1:53 AM,39.0,30.0,70,29.73,10.0,East,9.2,-,N/A,,Overcast,100,2012-12-15 07:53:00
2:53 AM,37.0,33.1,86,29.73,5.0,ESE,11.5,-,0.00,Rain,Light Rain,110,2012-12-15 08:53:00
3:53 AM,37.9,33.1,83,29.70,8.0,East,8.1,-,0.00,Rain,Light Rain,100,2012-12-15 09:53:00
4:53 AM,37.0,33.1,86,29.68,5.0,East,8.1,-,0.04,Rain,Light Rain,90,2012-12-15 10:53:00
5:24 AM,35.6,33.8,93,29.64,2.5,East,8.1,-,0.05,Rain,Light Rain,90,2012-12-15 11:24:00
5:31 AM,35.6,33.8,93,29.64,3.0,East,9.2,-,0.05,Rain,Light Rain,90,2012-12-15 11:31:00
5:37 AM,35.6,33.8,93,29.63,2.5,East,8.1,-,0.06,Rain,Light Rain,90,2012-12-15 11:37:00
5:49 AM,35.6,33.8,93,29.63,3.0,East,6.9,-,0.06,Rain,Light Rain,90,2012-12-15 11:49:00
5:53 AM,36.0,34.0,93,29.65,3.0,East,9.2,-,0.06,Rain,Light Rain,90,2012-12-15 11:53:00
6:03 AM,35.6,33.8,93,29.62,2.5,East,8.1,-,0.00,Rain,Light Rain,90,2012-12-15 12:03:00
6:14 AM,37.4,33.8,87,29.61,3.0,East,9.2,-,0.01,Rain,Light Rain,90,2012-12-15 12:14:00
6:53 AM,37.0,35.1,93,29.62,3.0,East,9.2,-,0.03,Rain,Light Rain,90,2012-12-15 12:53:00
7:01 AM,37.4,35.6,93,29.60,2.5,East,8.1,-,0.01,Rain,Light Rain,100,2012-12-15 13:01:00
7:10 AM,37.4,35.6,93,29.59,3.0,East,9.2,-,0.02,Rain,Light Rain,100,2012-12-15 13:10:00
8:04 AM,37.4,35.6,93,29.58,2.5,East,9.2,-,0.02,Rain,Light Rain,90,2012-12-15 14:04:00
8:27 AM,37.4,35.6,93,29.58,1.8,East,10.4,-,0.05,Rain,Light Rain,90,2012-12-15 14:27:00
8:42 AM,37.4,35.6,93,29.58,2.0,East,10.4,-,0.06,Rain,Light Rain,90,2012-12-15 14:42:00
8:53 AM,37.0,35.1,93,29.60,1.8,East,9.2,-,0.06,Rain,Light Rain,80,2012-12-15 14:53:00
9:53 AM,36.0,35.1,97,29.58,1.8,East,8.1,-,0.05,Rain,Light Rain,100,2012-12-15 15:53:00
10:02 AM,35.6,33.8,93,29.56,2.0,ENE,10.4,-,0.00,Rain,Light Rain,70,2012-12-15 16:02:00
10:49 AM,37.4,35.6,93,29.55,3.0,East,8.1,-,0.01,Rain,Light Rain,100,2012-12-15 16:49:00
10:53 AM,37.0,35.1,93,29.57,3.0,East,10.4,-,0.01,Rain,Light Rain,90,2012-12-15 16:53:00
11:53 AM,37.0,35.1,93,29.54,4.0,East,4.6,-,0.01,Rain,Light Rain,80,2012-12-15 17:53:00
12:34 PM,37.4,35.6,93,29.51,2.5,East,5.8,-,0.00,Rain,Light Rain,80,2012-12-15 18:34:00
12:46 PM,37.4,35.6,93,29.51,2.0,East,6.9,-,0.00,,Overcast,80,2012-12-15 18:46:00
12:53 PM,37.0,35.1,93,29.53,1.8,East,6.9,-,0.00,,Overcast,80,2012-12-15 18:53:00
1:53 PM,37.0,35.1,93,29.52,1.2,East,4.6,-,N/A,,Overcast,100,2012-12-15 19:53:00
2:53 PM,37.0,35.1,93,29.51,1.8,East,3.5,-,N/A,,Overcast,90,2012-12-15 20:53:00
3:53 PM,37.0,35.1,93,29.52,1.5,East,3.5,-,N/A,,Overcast,100,2012-12-15 21:53:00
4:39 PM,37.4,35.6,93,29.50,0.5,Calm,Calm,-,N/A,Fog,Fog,0,2012-12-15 22:39:00
4:53 PM,37.0,36.0,96,29.53,0.5,Calm,Calm,-,N/A,Fog,Fog,0,2012-12-15 22:53:00
5:45 PM,35.6,35.6,100,29.51,0.2,Calm,Calm,-,N/A,Fog,Fog,0,2012-12-15 23:45:00
5:53 PM,37.0,35.1,93,29.53,0.2,Calm,Calm,-,0.00,Fog-Rain,Light Rain,0,2012-12-15 23:53:00
6:19 PM,37.4,35.6,93,29.51,0.5,Calm,Calm,-,0.01,Fog-Rain,Light Rain,0,2012-12-16 00:19:00
6:32 PM,37.4,35.6,93,29.51,0.2,Calm,Calm,-,0.01,Fog-Rain,Light Rain,0,2012-12-16 00:32:00
6:53 PM,36.0,35.1,97,29.54,0.2,NW,3.5,-,0.01,Fog-Rain,Light Rain,310,2012-12-16 00:53:00
7:00 PM,35.6,35.6,100,29.52,0.5,NW,3.5,-,0.00,Fog-Rain,Light Rain,310,2012-12-16 01:00:00
7:33 PM,35.6,33.8,93,29.52,0.2,WNW,4.6,-,0.00,Fog-Rain,Light Rain,300,2012-12-16 01:33:00
7:40 PM,35.6,33.8,93,29.53,1.0,WNW,3.5,-,0.00,Rain,Light Rain,290,2012-12-16 01:40:00
7:49 PM,35.6,35.6,100,29.53,0.8,NW,4.6,-,0.00,,Mist,310,2012-12-16 01:49:00
7:53 PM,36.0,34.0,93,29.55,0.8,NW,4.6,-,0.00,,Mist,320,2012-12-16 01:53:00
8:01 PM,35.6,33.8,93,29.52,1.2,NW,4.6,-,N/A,,Overcast,320,2012-12-16 02:01:00
8:27 PM,35.6,33.8,93,29.53,0.5,NW,4.6,-,N/A,Fog,Fog,310,2012-12-16 02:27:00
8:45 PM,35.6,33.8,93,29.53,1.5,NW,5.8,-,N/A,,Overcast,320,2012-12-16 02:45:00
8:53 PM,35.1,34.0,96,29.55,2.0,NW,6.9,-,N/A,,Overcast,320,2012-12-16 02:53:00
9:06 PM,35.6,33.8,93,29.53,1.8,NW,8.1,-,0.00,,Overcast,310,2012-12-16 03:06:00
9:14 PM,35.6,33.8,93,29.53,2.5,NW,6.9,-,0.00,Rain,Light Rain,320,2012-12-16 03:14:00
9:21 PM,35.6,33.8,93,29.53,3.0,NW,8.1,-,0.00,Rain,Light Rain,310,2012-12-16 03:21:00
9:44 PM,33.8,33.8,100,29.54,2.0,WNW,3.5,-,0.01,Snow,Light Snow,290,2012-12-16 03:44:00
9:53 PM,33.1,32.0,96,29.57,1.8,WNW,4.6,-,0.02,Snow,Light Snow,290,2012-12-16 03:53:00
10:26 PM,33.8,32.0,93,29.54,2.5,WNW,4.6,-,0.01,Snow,Light Snow,300,2012-12-16 04:26:00
10:38 PM,33.8,32.0,93,29.54,3.0,WNW,5.8,-,0.01,Snow,Light Snow,300,2012-12-16 04:38:00
10:53 PM,33.1,32.0,96,29.57,5.0,WNW,6.9,-,0.01,Snow,Light Snow,300,2012-12-16 04:53:00
11:25 PM,33.8,32.0,93,29.54,4.0,WNW,6.9,-,0.00,Snow,Light Snow,300,2012-12-16 05:25:00
11:53 PM,34.0,32.0,92,29.56,5.0,NW,9.2,-,0.00,,Overcast,310,2012-12-16 05:53:00